KD9NSC Weather Reports


time (UTC)temp
C
wind
direction
speed
KPH
gust
KPH
rain 1hr
cm
rain 24hr
cm
rain mn
cm
humidity
%
barometer
mb
20260509112425 10 5 0.0 0.0 0.00 0.00 0.00 96 1006.2
20260509111921 10 10 0.0 0.0 0.00 0.00 0.00 96 1006.1
20260509111419 10 10 0.0 0.0 0.00 0.00 0.00 96 1006.1
20260509110916 10 13 0.0 0.0 0.00 0.00 0.00 96 1006.2
20260509110412 10 13 0.0 0.0 0.00 0.00 0.00 96 1006.0
20260509105910 10 13 0.0 0.0 0.00 0.00 0.00 96 1006.0
20260509105408 10 13 0.0 0.0 0.00 0.00 0.00 96 1006.2
20260509104859 10 15 0.0 0.0 0.00 0.00 0.00 96 1006.3
20260509104356 10 15 0.0 0.0 0.00 0.00 0.00 96 1006.1
20260509103854 10 14 0.0 0.0 0.00 0.00 0.00 96 1006.2
20260509103350 10 15 0.0 0.0 0.00 0.00 0.00 96 1006.1
20260509102849 10 10 0.0 0.0 0.00 0.00 0.00 96 1006.2
20260509102346 10 10 0.0 0.0 0.00 0.00 0.00 96 1006.4
20260509101842 10 6 0.0 0.0 0.00 0.00 0.00 96 1006.3
20260509101338 10 6 0.0 0.0 0.00 0.00 0.00 96 1006.2
20260509100836 10 5 0.0 0.0 0.00 0.00 0.00 96 1006.3
20260509100333 10 5 0.0 0.0 0.00 0.00 0.00 96 1006.3
20260509095830 10 5 0.0 0.0 0.00 0.00 0.00 96 1006.3
20260509095327 10 5 0.0 0.0 0.00 0.00 0.00 96 1006.6
20260509094824 10 5 0.0 0.0 0.00 0.00 0.00 96 1006.6
20260509094321 10 5 0.0 0.0 0.00 0.00 0.00 96 1006.6
20260509093818 9 4 0.0 0.0 0.00 0.00 0.00 96 1006.7
20260509093315 9 4 0.0 0.0 0.00 0.00 0.00 96 1006.7
20260509092814 9 4 0.0 0.0 0.00 0.00 0.00 96 1006.8
20260509092311 9 8 0.0 0.0 0.00 0.00 0.00 96 1006.9
20260509091809 9 8 0.0 0.0 0.00 0.00 0.00 96 1006.8
20260509091306 9 8 0.0 0.0 0.00 0.00 0.00 96 1006.6
20260509090803 9 11 0.0 0.0 0.00 0.00 0.00 96 1006.8
20260509090300 9 11 0.0 0.0 0.00 0.00 0.00 96 1006.7
20260509085757 9 9 0.0 0.0 0.00 0.00 0.00 96 1006.6
20260509085255 9 9 0.0 0.0 0.00 0.00 0.00 96 1006.6
20260509084751 9 9 0.0 0.0 0.00 0.00 0.00 96 1006.5
20260509084248 9 9 0.0 1.6 0.00 0.00 0.00 96 1006.5
20260509083746 9 344 0.0 0.0 0.00 0.00 0.00 96 1006.5
20260509083242 9 344 0.0 0.0 0.00 0.00 0.00 95 1006.9
20260509082739 8 344 0.0 0.0 0.00 0.00 0.00 95 1006.7
20260509082236 8 344 0.0 0.0 0.00 0.00 0.00 95 1006.8
20260509081732 8 344 0.0 0.0 0.00 0.00 0.00 95 1006.9
20260509081230 8 344 0.0 0.0 0.00 0.00 0.00 95 1006.9
20260509080728 8 344 0.0 0.0 0.00 0.00 0.00 95 1006.7
20260509080225 8 344 0.0 0.0 0.00 0.00 0.00 95 1006.9
20260509075724 8 344 0.0 0.0 0.00 0.00 0.00 95 1006.9
20260509075221 9 344 0.0 0.0 0.00 0.00 0.00 95 1007.0
20260509074718 9 344 0.0 0.0 0.00 0.00 0.00 95 1007.0
20260509074215 9 344 0.0 0.0 0.00 0.00 0.00 95 1007.0
20260509073711 9 344 0.0 0.0 0.00 0.00 0.00 95 1007.0
20260509073208 9 344 0.0 0.0 0.00 0.00 0.00 95 1006.9
20260509072704 9 344 0.0 0.0 0.00 0.00 0.00 95 1006.9
20260509072201 9 344 0.0 0.0 0.00 0.00 0.00 95 1007.0
20260509071658 9 344 0.0 0.0 0.00 0.00 0.00 94 1006.9
20260509071155 9 344 0.0 0.0 0.00 0.00 0.00 94 1007.1
20260509070652 9 344 0.0 0.0 0.00 0.00 0.00 94 1007.1
20260509070148 9 344 0.0 0.0 0.00 0.00 0.00 94 1007.4
20260509065645 10 344 0.0 0.0 0.00 0.00 0.00 94 1007.3
20260509065141 10 344 0.0 0.0 0.00 0.00 0.00 94 1007.3
20260509064638 10 344 0.0 0.0 0.00 0.00 0.00 94 1007.5
20260509064136 10 344 0.0 0.0 0.00 0.00 0.00 94 1007.4
20260509063632 10 344 0.0 0.0 0.00 0.00 0.00 94 1007.5
20260509063129 10 344 0.0 0.0 0.00 0.00 0.00 94 1007.5
20260509062626 10 344 0.0 0.0 0.00 0.00 0.00 94 1007.8
20260509062123 10 344 0.0 0.0 0.00 0.00 0.00 93 1007.9
20260509061620 10 344 0.0 0.0 0.00 0.00 0.00 93 1007.9
20260509061117 10 344 0.0 0.0 0.00 0.00 0.00 93 1007.8
20260509060615 10 344 0.0 0.0 0.00 0.00 0.00 93 1007.3
20260509060110 10 344 0.0 0.0 0.00 0.00 0.00 93 1007.7
20260509055606 10 344 0.0 0.0 0.00 0.00 0.00 93 1007.8
20260509055102 10 344 0.0 0.0 0.00 0.00 0.00 93 1007.8
20260509054559 10 344 0.0 0.0 0.00 0.00 0.00 92 1007.9
20260509054057 10 344 0.0 0.0 0.00 0.00 0.00 92 1007.8
20260509053555 10 344 0.0 0.0 0.00 0.00 0.00 92 1007.8
20260509053052 10 344 0.0 0.0 0.00 0.00 0.00 92 1007.9
20260509052550 10 344 0.0 0.0 0.00 0.00 0.00 92 1008.1
20260509052048 11 344 0.0 0.0 0.00 0.00 0.00 92 1008.0
20260509051545 11 344 0.0 0.0 0.00 0.00 0.00 91 1008.0
20260509051042 11 344 0.0 0.0 0.00 0.00 0.00 91 1007.8
20260509050539 11 344 0.0 0.0 0.00 0.00 0.00 91 1008.0
20260509050035 11 344 0.0 0.0 0.00 0.00 0.00 91 1008.0
20260509045533 11 344 0.0 0.0 0.00 0.00 0.00 91 1008.1
20260509045029 11 344 0.0 0.0 0.00 0.00 0.00 91 1008.2
20260509044527 11 344 0.0 0.0 0.00 0.00 0.00 90 1008.1
20260509044024 11 344 0.0 0.0 0.00 0.00 0.00 90 1008.1
20260509043521 11 344 0.0 0.0 0.00 0.00 0.00 90 1008.2
20260509043016 11 344 0.0 0.0 0.00 0.00 0.00 89 1008.1
20260509042513 11 344 0.0 0.0 0.00 0.00 0.00 89 1008.1
20260509042009 11 344 0.0 0.0 0.00 0.00 0.00 89 1008.2
20260509041506 11 344 0.0 0.0 0.00 0.00 0.00 89 1008.3
20260509041004 11 344 0.0 0.0 0.00 0.00 0.00 89 1008.2
20260509040501 11 344 0.0 0.0 0.00 0.00 0.00 89 1008.4
20260509035958 11 344 0.0 0.0 0.00 0.00 0.00 89 1008.2
20260509035455 11 344 0.0 0.0 0.00 0.00 0.00 89 1008.3
20260509034951 11 344 0.0 0.0 0.00 0.00 0.00 89 1008.3
20260509034449 11 344 0.0 0.0 0.00 0.00 0.00 89 1008.4
20260509033946 11 344 0.0 0.0 0.00 0.00 0.00 89 1008.4
20260509033443 11 344 0.0 0.0 0.00 0.00 0.00 89 1008.4
20260509032940 11 344 0.0 0.0 0.00 0.00 0.00 89 1008.5
20260509032437 11 344 0.0 0.0 0.00 0.00 0.00 89 1008.3
20260509031935 11 325 0.0 0.0 0.00 0.00 0.00 89 1008.5
20260509031432 12 325 0.0 0.0 0.00 0.00 0.00 89 1008.5
20260509030929 12 325 0.0 0.0 0.00 0.00 0.00 89 1008.5
20260509030427 12 325 0.0 0.0 0.00 0.00 0.00 89 1008.7
20260509025924 12 325 0.0 0.0 0.00 0.00 0.00 89 1008.8
20260509025420 12 325 0.0 0.0 0.00 0.00 0.00 89 1008.7
20260509024915 12 325 0.0 0.0 0.00 0.00 0.00 88 1008.6
20260509024411 12 325 0.0 0.0 0.00 0.00 0.00 88 1008.8
20260509023909 12 325 0.0 0.0 0.00 0.00 0.00 88 1008.7
20260509023406 12 325 0.0 0.0 0.00 0.00 0.00 88 1008.9
20260509022902 12 325 0.0 0.0 0.00 0.00 0.00 88 1008.7
20260509022359 12 325 0.0 0.0 0.00 0.00 0.00 88 1008.8
20260509021856 12 325 0.0 0.0 0.00 0.00 0.00 88 1008.6
20260509021353 12 325 0.0 0.0 0.00 0.00 0.00 88 1008.6
20260509020851 11 325 0.0 0.0 0.00 0.00 0.00 88 1008.6
20260509020349 11 325 0.0 0.0 0.00 0.00 0.00 88 1008.6
20260509015846 11 325 0.0 0.0 0.00 0.00 0.00 87 1008.5
20260509015344 11 325 0.0 0.0 0.00 0.00 0.00 87 1008.5
20260509014840 11 325 0.0 0.0 0.00 0.00 0.00 87 1008.6
20260509014337 11 325 0.0 0.0 0.00 0.00 0.00 86 1008.5
20260509013834 11 325 0.0 0.0 0.00 0.00 0.00 86 1008.6
20260509013331 11 325 0.0 0.0 0.00 0.00 0.00 86 1008.6
20260509012827 11 325 0.0 0.0 0.00 0.00 0.00 85 1008.5
20260509012323 11 325 0.0 0.0 0.00 0.00 0.00 85 1008.4
20260509011821 11 325 0.0 0.0 0.00 0.00 0.00 85 1008.3
20260509011318 12 325 0.0 0.0 0.00 0.00 0.00 84 1008.6
20260509010816 11 325 0.0 0.0 0.00 0.00 0.00 84 1008.3
20260509010313 12 325 0.0 0.0 0.00 0.00 0.00 84 1008.4
20260509005810 12 325 0.0 0.0 0.00 0.00 0.00 83 1008.4
20260509005308 12 325 0.0 0.0 0.00 0.00 0.00 83 1008.3
20260509004802 12 325 0.0 0.0 0.00 0.00 0.00 81 1008.4
20260509004259 12 325 0.0 0.0 0.00 0.00 0.00 81 1008.5
20260509003757 12 325 0.0 0.0 0.00 0.00 0.00 80 1008.4
20260509003254 13 325 0.0 0.0 0.00 0.00 0.00 79 1008.4
20260509002751 13 325 0.0 0.0 0.00 0.00 0.00 79 1008.2
20260509002249 13 325 0.0 0.0 0.00 0.00 0.00 78 1008.3
20260509001746 13 325 0.0 0.0 0.00 0.00 0.00 78 1008.3
20260509001242 13 325 0.0 0.0 0.00 0.00 0.00 79 1008.4
20260509000740 13 325 0.0 0.0 0.00 0.00 0.00 79 1008.3
20260509000237 13 264 0.0 0.0 0.00 0.00 0.00 78 1008.2
20260508235734 13 264 0.0 0.0 0.00 0.00 0.00 77 1008.3
20260508235230 14 264 0.0 0.0 0.00 0.00 0.00 77 1008.3
20260508234728 14 264 0.0 0.0 0.00 0.00 0.00 75 1008.3
20260508234224 14 264 0.0 0.0 0.00 0.00 0.00 74 1008.4
20260508233718 14 264 0.0 0.0 0.00 0.00 0.00 75 1008.3
20260508233215 14 264 0.0 0.0 0.00 0.00 0.00 74 1008.4
20260508232713 14 264 0.0 0.0 0.00 0.00 0.00 73 1008.2
20260508232208 14 264 0.0 0.0 0.00 0.00 0.00 73 1008.2
20260508231707 14 264 0.0 0.0 0.00 0.00 0.00 70 1008.2
20260508231204 14 264 0.0 0.0 0.00 0.00 0.00 73 1008.5
20260508230701 14 264 0.0 0.0 0.00 0.00 0.00 71 1008.4
20260508230156 14 264 0.0 0.0 0.00 0.00 0.00 71 1008.4
20260508225655 14 264 0.0 0.0 0.00 0.00 0.00 70 1008.5
20260508225150 14 264 0.0 0.0 0.00 0.00 0.00 69 1008.5
20260508224649 14 252 0.0 0.0 0.00 0.00 0.00 68 1008.5
20260508224146 14 266 0.0 0.0 0.00 0.00 0.00 70 1008.5
20260508223643 14 266 0.0 0.0 0.00 0.00 0.00 70 1008.8
20260508223141 14 266 0.0 1.6 0.00 0.00 0.00 68 1008.7
20260508222638 14 311 0.0 0.0 0.00 0.00 0.00 69 1008.7
20260508222135 15 312 0.0 0.0 0.00 0.00 0.00 67 1008.6
20260508221631 15 290 0.0 0.0 0.00 0.00 0.00 69 1008.5
20260508221127 15 290 0.0 0.0 0.00 0.00 0.00 68 1008.8
20260508220624 15 315 0.0 0.0 0.00 0.00 0.00 68 1008.6
20260508220120 14 338 0.0 0.0 0.00 0.00 0.00 68 1008.6
20260508215617 14 315 0.0 0.0 0.00 0.00 0.00 67 1008.8
20260508215114 14 339 0.0 0.0 0.00 0.00 0.00 67 1008.7
20260508214611 14 252 0.0 0.0 0.00 0.00 0.00 67 1008.7
20260508214108 15 346 0.0 0.0 0.00 0.00 0.00 67 1008.6
20260508213604 15 346 0.0 0.0 0.00 0.00 0.00 67 1008.8
20260508213101 15 337 0.0 0.0 0.00 0.00 0.00 67 1008.9
20260508212557 15 8 0.0 0.0 0.00 0.00 0.00 68 1008.9
20260508212054 15 234 1.6 1.6 0.00 0.00 0.00 66 1008.9
20260508211549 15 23 0.0 0.0 0.00 0.00 0.00 70 1008.9
20260508211045 15 315 0.0 0.0 0.00 0.00 0.00 70 1009.0
20260508210542 16 241 1.6 3.2 0.00 0.00 0.00 67 1008.9
20260508210040 16 17 0.0 0.0 0.00 0.00 0.00 70 1009.0
20260508205537 15 333 0.0 0.0 0.00 0.00 0.00 69 1009.0
20260508205033 15 339 0.0 0.0 0.00 0.00 0.00 69 1009.2
20260508204530 15 324 0.0 0.0 0.00 0.00 0.00 67 1009.2
20260508204025 15 301 0.0 0.0 0.00 0.00 0.00 70 1009.4
20260508203522 15 294 0.0 0.0 0.00 0.00 0.00 74 1009.6
20260508203018 15 302 0.0 0.0 0.00 0.00 0.00 71 1009.6
20260508202515 15 302 0.0 0.0 0.00 0.00 0.00 72 1009.4
20260508202012 15 302 0.0 0.0 0.00 0.00 0.00 73 1009.6
20260508201509 15 302 0.0 0.0 0.00 0.00 0.00 72 1009.7
20260508201005 15 302 0.0 0.0 0.00 0.00 0.00 70 1009.8
20260508200502 15 302 0.0 0.0 0.00 0.00 0.00 71 1009.9
20260508195956 15 296 0.0 0.0 0.00 0.00 0.00 70 1009.9
20260508195455 15 309 0.0 0.0 0.00 0.00 0.00 71 1010.0
20260508194950 15 315 0.0 0.0 0.00 0.00 0.00 73 1009.9
20260508194448 15 274 0.0 0.0 0.00 0.00 0.00 71 1010.0
20260508193945 15 330 0.0 0.0 0.00 0.00 0.00 73 1010.2
20260508193441 15 335 0.0 0.0 0.00 0.00 0.00 75 1010.1
20260508192938 15 329 0.0 0.0 0.00 0.00 0.00 73 1010.1
20260508192435 15 313 0.0 0.0 0.00 0.00 0.00 74 1010.3
20260508191932 15 343 0.0 0.0 0.00 0.00 0.00 74 1010.1
20260508191429 15 185 0.0 0.0 0.00 0.00 0.00 75 1010.3
20260508190925 15 331 0.0 0.0 0.00 0.00 0.00 75 1010.2
20260508190423 15 308 0.0 0.0 0.00 0.00 0.00 74 1010.4
20260508185919 16 324 0.0 0.0 0.00 0.00 0.00 71 1010.4
20260508185417 16 314 0.0 0.0 0.00 0.00 0.00 72 1010.6
20260508184914 16 112 1.6 3.2 0.00 0.00 0.00 69 1010.5
20260508184411 16 301 0.0 0.0 0.00 0.00 0.00 70 1010.7
20260508183908 16 326 0.0 0.0 0.00 0.00 0.00 73 1010.6
20260508183404 15 324 0.0 0.0 0.00 0.00 0.00 74 1010.6
20260508182859 15 336 0.0 1.6 0.00 0.00 0.00 73 1010.8
20260508182356 15 317 0.0 0.0 0.00 0.00 0.00 76 1011.0
20260508181847 15 312 1.6 1.6 0.00 0.00 0.00 77 1011.1
20260508181343 15 317 0.0 0.0 0.00 0.00 0.00 77 1011.1
20260508180841 15 336 0.0 0.0 0.00 0.00 0.00 76 1011.0
20260508180337 15 323 0.0 0.0 0.00 0.00 0.00 75 1011.1
20260508175833 16 13 0.0 1.6 0.00 0.00 0.00 74 1011.2
20260508175330 16 337 0.0 0.0 0.00 0.00 0.00 72 1011.3
20260508174829 16 336 0.0 0.0 0.00 0.00 0.00 73 1011.5
20260508174326 16 315 0.0 0.0 0.00 0.00 0.00 70 1011.6
20260508173822 16 324 0.0 0.0 0.00 0.00 0.00 72 1011.5
20260508173319 16 326 0.0 0.0 0.00 0.00 0.00 71 1011.7
20260508172815 16 306 0.0 0.0 0.00 0.00 0.00 70 1011.7
20260508172312 17 315 0.0 0.0 0.00 0.00 0.00 69 1011.9
20260508171809 17 355 0.0 0.0 0.00 0.00 0.00 71 1011.7
20260508171305 16 326 0.0 0.0 0.00 0.00 0.00 70 1011.9
20260508170802 16 339 0.0 0.0 0.00 0.00 0.00 72 1011.9
20260508170300 16 323 0.0 0.0 0.00 0.00 0.00 74 1012.2
20260508165756 15 323 0.0 0.0 0.00 0.00 0.00 74 1012.0
20260508165253 15 308 0.0 0.0 0.00 0.00 0.00 75 1012.3
20260508164749 16 323 0.0 0.0 0.00 0.00 0.00 72 1012.2
20260508164246 16 324 0.0 0.0 0.00 0.00 0.00 73 1012.2
20260508163744 16 350 0.0 0.0 0.00 0.00 0.00 73 1012.4
20260508163242 16 350 0.0 0.0 0.00 0.00 0.00 70 1012.4
20260508162737 16 350 0.0 0.0 0.00 0.00 0.00 72 1012.5
20260508162234 15 341 0.0 0.0 0.00 0.00 0.00 76 1012.6
20260508161731 15 324 0.0 0.0 0.00 0.00 0.00 75 1012.6
20260508161228 15 336 0.0 0.0 0.00 0.00 0.00 75 1012.6
20260508160726 15 331 0.0 0.0 0.00 0.00 0.00 75 1012.6
20260508160225 16 319 0.0 0.0 0.00 0.00 0.00 73 1012.7
20260508155721 16 318 0.0 0.0 0.00 0.00 0.00 75 1012.8
20260508155218 16 351 0.0 0.0 0.00 0.00 0.00 76 1012.8
20260508154714 15 356 0.0 0.0 0.00 0.00 0.00 74 1012.7
20260508154212 16 343 0.0 0.0 0.00 0.00 0.00 71 1012.9
20260508153708 16 347 0.0 0.0 0.00 0.00 0.00 71 1012.9
20260508153206 17 328 0.0 0.0 0.00 0.00 0.00 71 1013.2
20260508152702 17 359 0.0 0.0 0.00 0.00 0.00 68 1012.7
20260508152158 18 349 0.0 0.0 0.00 0.00 0.00 66 1013.0
20260508151654 18 13 0.0 0.0 0.00 0.00 0.00 67 1012.8
20260508151151 17 18 0.0 0.0 0.00 0.00 0.00 70 1013.0
20260508150648 17 16 0.0 0.0 0.00 0.00 0.00 71 1013.0
20260508150145 17 8 0.0 0.0 0.00 0.00 0.00 71 1012.9
20260508145641 17 21 0.0 0.0 0.00 0.00 0.00 72 1012.9
20260508145137 17 16 0.0 0.0 0.00 0.00 0.00 72 1013.0
20260508144635 17 14 0.0 0.0 0.00 0.00 0.00 74 1013.0
20260508144132 16 15 0.0 0.0 0.00 0.00 0.00 74 1012.9
20260508143630 16 17 0.0 0.0 0.00 0.00 0.00 78 1013.0
20260508143126 15 11 0.0 0.0 0.00 0.00 0.00 77 1013.0
20260508142623 15 19 0.0 0.0 0.00 0.00 0.00 81 1013.0
20260508142120 14 12 0.0 0.0 0.00 0.00 0.00 83 1013.0
20260508141616 14 356 0.0 0.0 0.00 0.00 0.00 82 1013.0
20260508141114 13 1 0.0 0.0 0.00 0.00 0.00 85 1013.0
20260508140611 13 3 0.0 0.0 0.00 0.00 0.00 84 1013.0
20260508140108 13 11 0.0 0.0 0.00 0.00 0.00 86 1013.0
20260508135603 12 7 1.6 1.6 0.00 0.00 0.00 86 1012.9
20260508135059 12 13 0.0 0.0 0.00 0.00 0.00 87 1013.2
20260508134556 11 5 0.0 0.0 0.00 0.00 0.00 90 1013.2
20260508134053 11 0 0.0 0.0 0.00 0.00 0.00 90 1013.3
20260508133550 11 5 0.0 0.0 0.00 0.00 0.00 90 1013.3
20260508133047 11 4 0.0 0.0 0.00 0.00 0.00 91 1013.0
20260508132545 10 4 0.0 0.0 0.00 0.00 0.00 92 1013.0
20260508132041 10 4 0.0 0.0 0.00 0.00 0.00 92 1013.4
20260508131537 10 4 0.0 0.0 0.00 0.00 0.00 93 1013.6
20260508131034 10 4 0.0 0.0 0.00 0.00 0.00 94 1013.3
20260508130531 10 4 0.0 0.0 0.00 0.00 0.00 95 1013.4
20260508130027 10 0 0.0 0.0 0.00 0.00 0.00 96 1013.5
20260508125523 10 20 0.0 0.0 0.00 0.00 0.00 97 1013.6
20260508125021 9 21 0.0 0.0 0.00 0.00 0.00 98 1013.4
20260508124519 9 11 0.0 0.0 0.00 0.00 0.00 98 1013.4
20260508124015 8 9 0.0 0.0 0.00 0.00 0.00 98 1013.5
20260508123514 8 357 0.0 0.0 0.00 0.00 0.00 98 1013.6
20260508123010 7 357 0.0 0.0 0.00 0.00 0.00 98 1013.5
20260508122507 7 357 0.0 0.0 0.00 0.00 0.00 98 1013.4
20260508121959 7 357 0.0 0.0 0.00 0.00 0.00 98 1013.4
20260508121457 7 357 0.0 0.0 0.00 0.00 0.00 98 1013.4
20260508120954 7 357 0.0 0.0 0.00 0.00 0.00 98 1013.0
20260508120452 7 358 0.0 0.0 0.00 0.00 0.00 98 1013.4
20260508115950 7 358 0.0 0.0 0.00 0.00 0.00 98 1013.2
20260508115447 7 358 0.0 0.0 0.00 0.00 0.00 98 1013.0
20260508114944 6 358 0.0 0.0 0.00 0.00 0.00 98 1013.2
20260508114441 6 358 0.0 0.0 0.00 0.00 0.00 98 1013.0
20260508113937 6 358 0.0 0.0 0.00 0.00 0.00 98 1012.7
20260508113435 6 358 0.0 0.0 0.00 0.00 0.00 98 1012.9
20260508112932 6 358 0.0 0.0 0.00 0.00 0.00 98 1012.9